Regional Weather Roundup
Issued by NWS

Home | Current Version | Previous Version | Text Only | Print | Product List | Glossary On
Versions: 1 2 3 4 5 6 7 8 9 10 11 12 13 14 15 16 17 18 19 20 21 22 23 24 25 26 27 28
000
ASUS44 KLIX 062111
RWRLA
LOUISIANA WEATHER ROUNDUP
NATIONAL WEATHER SERVICE NEW ORLEANS LA
400 PM CDT FRI MAY 06 2016

NOTE: "FAIR" INDICATES FEW OR NO CLOUDS BELOW 12,000 FEET WITH NO
      SIGNIFICANT WEATHER AND/OR OBSTRUCTIONS TO VISIBILITY.
      SKY/WX - SKY CONDITION AND SIGNIFICANT WEATHER.
      TMP - AIR TEMPERATURE.    DP   - DEWPOINT TEMPERATURE.
      RH  - RELATIVE HUMIDITY.  PRES - PRESSURE.
      HX  - HEAT INDEX.         WCI  - WIND CHILL INDEX.

*  THESE STATIONS ARE NOT NWS OR FAA STATIONS AND ARE NOT UNDER
   NWS QUALITY CONTROL.

LAZ040-048-061>063-065-066-069-062200-
SOUTHEAST LOUISIANA

CITY           SKY/WX    TMP DP  RH WIND       PRES   REMARKS
N.O. AUDUBON   NOT AVBL
N.O. INTL ARPT PTSUNNY   77  50  38 N8        30.01F
N.O. LAKEFRONT SUNNY     71  51  49 W7        30.02F
N.O. DOWNTOWN* FAIR      76  46  34 NW9       30.02F
RESERVE*       FAIR      79  42  26 N9G20     30.01F
SLIDELL        SUNNY     76  47  35 VRB7      30.00F
BATON ROUGE    SUNNY     78  42  27 N7        30.02F
BOOTHVILLE     SUNNY     70  50  49 VRB5      30.03F
BELLE CHASSE   MOSUNNY   75  45  34 N9G16     30.01F
BOGALUSA*      FAIR      77  44  30 N7G17     30.03F
GALLIANO*      CLEAR     77  45  32 N8        30.01F
NEW ROADS*     FAIR      75  47  36 NW7G16    30.03F
GONZALES*      FAIR      77  44  31 N12       30.01F
HAMMOND*       SUNNY     79  37  22 NW8       30.01F
HOUMA*         SUNNY     73  50  43 N12       30.01
PORT FOURCHON* CLEAR     75  45  33 N15       30.02F

$$

LAZ041-044-053-054-062200-
SOUTHWEST LOUISIANA

CITY           SKY/WX    TMP DP  RH WIND       PRES   REMARKS
LAKE CHARLES   SUNNY     80  53  39 VRB7      30.02F
LAFAYETTE      SUNNY     81  49  32 N10G20    30.02F
PATTERSON      NOT AVBL
SALT POINT       N/A     76  53  44 W7        30.00F
NEW IBERIA     SUNNY     80  48  32 N9        30.02F
CHENAULT AIRPK NOT AVBL

$$

LAZ027-028-062200-
CENTRAL LOUISIANA

CITY           SKY/WX    TMP DP  RH WIND       PRES   REMARKS
FORT POLK      SUNNY     80  50  34 VRB5      30.01F
ALEXANDRIA INT SUNNY     80  45  28 VRB6      30.01F
ALEXANDRIA     SUNNY     82  41  23 CALM      30.03F

$$

LAZ001-002-062200-
NORTHWEST LOUISIANA

CITY           SKY/WX    TMP DP  RH WIND       PRES   REMARKS
SHREVEPORT     MOSUNNY   80  47  31 N10       30.04F
BARKSDALE AFB  SUNNY     79  45  30 CALM      30.04F
DTN SHREVEPORT SUNNY     80  48  32 VRB3      30.04F

$$

LAZ014-016-062200-
NORTHEAST LOUISIANA

CITY           SKY/WX    TMP DP  RH WIND       PRES   REMARKS
MONROE         SUNNY     78  45  30 N8        30.05F
TALLULAH       SUNNY     75  44  33 NE6G18    30.05F

$$





USA.gov is the U.S. government's official web portal to all federal, state and local government web resources and services.